Location: Suzhou
(31.3110°N, 120.6180°E)
Time: 05:14:12
(UTC+08:00)

FO-29 - Visible Passes

Search period start: 28 May 2024 00:00
Search period end: 07 June 2024 00:00
Orbit: 801 x 1320 km, 98.6° (Epoch: 27 May)

Date Brightness Start Highest point End Pass type
(mag) Time Alt. Az. Time Alt. Az. Time Alt. Az.
28 May 11.8 00:01:48 10° ENE 00:04:09 13° E 00:04:09 13° E visible
28 May 9.6 01:43:38 10° N 01:50:37 74° WNW 01:50:37 74° WNW visible
29 May 10.6 00:49:03 10° NNE 00:54:44 38° E 00:54:44 38° E visible
29 May 10.7 02:34:21 10° N 02:40:06 29° WNW 02:41:12 27° W visible
29 May 11.9 23:57:31 10° ENE 23:58:50 11° E 23:58:50 11° E visible
30 May 9.5 01:38:32 10° N 01:45:19 80° WNW 01:45:19 80° WNW visible
30 May 11.7 03:28:09 10° NW 03:29:04 10° WNW 03:30:00 10° WNW visible
31 May 10.7 00:44:05 10° NNE 00:49:25 34° E 00:49:25 34° E visible
31 May 10.6 02:29:10 10° N 02:34:57 30° WNW 02:35:53 29° W visible
01 Jun 9.5 01:33:27 10° NNE 01:39:59 83° NNW 01:39:59 83° NNW visible
01 Jun 11.6 03:22:17 10° NW 03:23:58 11° WNW 03:25:35 10° WNW visible
02 Jun 10.9 00:39:07 10° NE 00:44:05 30° E 00:44:05 30° E visible
02 Jun 10.4 02:23:58 10° N 02:29:47 32° WNW 02:30:34 31° W visible
03 Jun 9.5 01:28:21 10° NNE 01:34:39 80° NNE 01:34:39 80° NNE visible
03 Jun 11.5 03:16:43 10° NW 03:18:51 12° WNW 03:20:56 10° WNW visible
04 Jun 11.0 00:34:10 10° NE 00:38:45 27° E 00:38:45 27° E visible
04 Jun 10.3 02:18:48 10° N 02:24:37 35° WNW 02:25:13 34° W visible
05 Jun 9.5 01:23:16 10° NNE 01:29:18 74° NE 01:29:18 74° NE visible
05 Jun 11.4 03:11:12 10° NW 03:13:43 13° WNW 03:15:46 11° W visible
06 Jun 11.1 00:29:14 10° NE 00:33:24 24° E 00:33:24 24° E visible
06 Jun 10.2 02:13:37 10° N 02:19:26 37° WNW 02:19:52 37° WNW visible
